Theta_e
314 314 314 314 314 314 314 314 314 313 313 313 313 313 313 314 314 314 314 314 314 314 314 314 314 317 317 317 317 316 315 314 313 315 320 323 312 314 321 321 336 352 355 354 354 354 355 355 354 352 351 351 354 354 353 353 354 357 362 362 359 359 362 366 371 367 365 368 366 365 365 366 367 362 357 357 360 359 357 356 355 355 355 358 360 357 355 355
315 314 314 314 314 314 314 313 313 313 313 313 313 313 313 313 313 313 313 313 314 314 313 314 315 316 316 317 316 316 316 314 316 321 325 315 314 315 322 324 338 352 353 354 355 354 355 355 354 353 351 354 355 354 355 353 354 357 361 362 360 363 367 367 370 367 363 365 366 367 365 363 365 364 358 361 364 359 359 358 355 358 358 358 359 357 356 355
314 314 314 314 314 314 314 313 313 313 312 313 313 313 312 312 313 313 313 313 313 313 313 314 315 316 316 317 316 317 316 315 325 338 327 313 318 313 322 326 336 351 350 350 353 353 355 354 354 353 354 357 355 354 355 354 356 356 358 363 361 362 363 363 365 366 365 362 363 365 364 363 362 361 360 362 364 362 361 359 358 361 359 359 359 357 356 355
314 314 314 314 314 314 314 313 313 313 313 313 313 313 312 312 313 312 312 313 312 312 313 315 315 316 317 316 316 317 316 322 332 333 325 318 318 312 325 328 336 351 349 349 353 352 354 354 354 353 355 360 355 354 356 356 356 355 357 363 363 360 361 362 363 365 364 360 362 365 364 363 363 360 361 364 364 365 361 357 358 359 358 359 358 357 356 355
314 314 314 314 314 314 314 313 313 313 313 313 313 313 312 312 313 312 312 312 310 312 314 315 316 316 317 316 317 318 319 327 323 327 327 319 315 314 324 328 337 349 350 351 353 352 354 355 354 354 357 360 358 358 358 355 355 357 357 358 359 358 360 361 363 366 364 361 363 364 363 363 363 361 361 363 364 365 360 356 357 356 356 358 357 356 355 354
314 315 315 314 314 314 314 313 313 313 313 313 313 312 312 312 312 312 312 311 311 313 314 315 315 316 316 316 318 318 321 323 320 323 325 317 315 316 319 329 343 350 349 352 352 351 354 355 355 357 359 359 360 361 358 354 354 360 362 358 358 356 359 358 361 367 365 365 367 365 363 362 364 363 360 362 362 362 359 357 356 355 356 357 356 356 354 353
315 314 314 314 314 314 314 313 313 313 312 313 313 313 312 312 313 312 311 310 311 312 314 314 315 316 316 317 320 320 322 324 319 319 324 317 314 317 320 336 349 350 349 351 350 349 353 355 357 358 358 360 360 359 359 358 356 361 364 362 361 359 359 358 357 362 363 366 367 363 360 361 365 363 359 361 360 357 357 359 358 356 356 357 356 355 354 353
315 315 314 314 314 313 313 313 313 312 313 312 312 312 312 312 313 311 311 311 312 312 313 314 315 316 316 318 323 323 323 326 321 320 325 317 314 325 333 346 349 345 348 350 347 347 352 356 357 357 359 361 360 360 361 362 360 360 362 361 362 363 363 361 357 359 363 364 361 360 360 360 362 360 358 360 359 355 354 355 357 356 357 357 356 356 355 353
314 314 314 314 313 313 312 312 313 313 313 312 312 312 311 312 312 311 311 311 312 312 313 314 315 316 317 319 323 318 317 325 327 327 327 317 317 333 341 346 344 340 346 347 343 345 351 355 356 356 359 359 360 363 363 363 364 363 361 360 364 365 362 362 363 362 363 362 360 361 362 360 358 357 358 360 359 356 353 354 355 356 358 358 356 355 355 353
314 314 314 314 313 313 313 313 313 313 313 312 312 312 311 312 312 311 311 312 312 312 313 315 316 316 318 321 319 312 318 325 331 331 326 316 323 341 343 339 338 337 340 343 341 342 346 352 354 352 355 360 360 362 363 362 362 364 363 363 365 365 361 361 366 365 363 363 361 362 365 361 356 357 361 361 358 355 354 354 353 356 358 357 356 356 354 354
314 314 314 314 313 313 313 313 313 313 313 312 312 312 311 312 311 311 312 311 311 312 314 315 315 317 319 321 316 310 323 328 334 330 321 317 326 340 340 335 337 335 337 339 338 339 342 347 349 349 356 360 361 362 364 361 359 362 365 365 365 365 364 365 367 365 362 362 360 361 363 361 357 359 362 360 356 355 355 354 352 356 358 356 356 356 355 354
315 314 314 314 313 313 313 313 313 313 313 313 313 312 311 312 311 312 312 310 311 313 316 316 315 318 320 323 320 316 325 334 335 325 321 323 326 332 331 330 332 333 335 337 337 338 339 342 343 347 354 357 363 364 361 361 362 362 364 364 364 365 366 366 368 364 361 362 361 360 361 362 362 361 360 357 355 356 355 354 353 355 357 356 356 356 355 354
315 315 314 314 314 314 314 313 313 313 313 312 312 312 311 312 311 311 311 310 312 314 316 317 317 318 320 325 322 315 324 334 331 324 328 333 332 333 334 334 333 333 335 335 336 338 338 341 338 340 343 346 359 360 353 358 363 362 363 366 365 364 365 364 365 364 361 362 361 358 358 360 362 359 356 356 355 356 357 355 353 355 357 356 356 354 354 353
315 315 314 314 314 314 314 313 313 313 312 312 311 312 312 311 311 311 310 312 314 316 318 318 319 319 321 323 319 314 320 327 329 328 329 332 331 332 333 335 337 335 334 331 330 334 338 339 335 335 336 338 350 355 355 360 366 367 362 365 365 357 363 366 362 365 364 361 361 358 357 359 362 359 356 356 355 355 357 357 354 355 356 355 356 354 353 352
315 315 314 314 314 314 314 313 312 312 312 311 311 312 311 311 311 310 311 314 316 318 319 318 319 320 325 325 319 319 320 320 325 328 327 328 328 329 329 332 335 332 331 328 325 329 333 334 333 334 337 340 348 355 360 362 371 373 355 357 365 354 362 371 361 364 366 360 359 359 360 360 361 361 356 356 355 355 357 357 355 355 356 355 356 354 353 352
315 315 314 314 313 314 314 312 312 312 311 311 311 312 312 311 311 311 313 314 316 318 319 319 319 322 329 326 318 321 323 321 322 322 325 329 327 328 328 330 331 329 329 327 324 325 328 331 334 336 338 342 350 357 361 357 363 371 354 352 361 354 358 365 358 362 364 362 360 358 362 362 360 359 357 356 355 356 359 358 355 356 357 357 355 353 355 355
315 315 314 313 313 313 313 313 312 311 311 311 311 311 311 311 311 313 314 315 317 319 320 321 319 320 327 324 318 321 324 325 324 319 322 326 327 328 327 328 329 327 328 326 324 324 328 334 337 342 345 344 351 359 357 353 356 363 357 353 360 360 356 356 358 362 361 362 362 360 361 361 358 358 356 356 356 357 360 358 357 358 357 357 356 355 357 357
315 315 314 313 313 313 313 313 312 311 311 311 312 312 312 312 313 315 315 317 317 318 320 321 320 322 320 320 320 322 322 323 325 323 322 325 327 328 326 328 327 326 326 323 323 324 329 337 339 346 351 348 356 360 353 352 355 352 351 350 352 357 354 355 361 361 360 363 365 364 363 358 356 356 357 356 355 356 360 358 357 358 358 357 356 356 357 356
316 316 315 313 313 313 313 312 311 311 312 314 315 314 315 316 317 318 317 320 320 319 322 324 325 322 317 318 318 320 321 322 325 324 326 328 328 327 328 326 325 325 323 320 321 323 330 339 340 344 349 350 355 358 354 355 354 350 352 349 346 348 348 355 362 358 363 368 366 366 363 359 356 355 358 358 355 356 359 358 358 358 358 358 357 356 356 355
317 316 315 313 313 313 313 311 311 312 312 316 317 317 320 324 327 326 323 324 324 321 322 323 325 323 321 320 318 321 323 324 326 326 327 329 328 327 328 327 326 326 320 320 324 325 333 342 343 345 348 351 351 352 354 353 352 353 353 349 347 346 345 355 366 358 359 367 365 364 362 360 357 355 357 357 356 357 357 358 358 358 357 357 356 356 355 354
317 316 315 314 313 313 313 311 312 313 313 315 317 320 325 327 330 330 330 330 324 320 322 322 321 321 321 319 319 321 324 325 326 328 328 329 328 327 329 329 328 327 324 328 334 332 337 341 342 346 347 347 347 349 350 351 352 353 351 349 347 345 346 356 364 357 354 359 361 363 362 359 359 357 356 356 357 358 358 357 357 357 356 355 356 356 355 353
317 316 316 314 313 313 313 312 314 315 314 312 313 320 325 322 320 321 323 327 324 320 321 321 319 320 320 319 320 321 323 326 326 329 330 328 328 329 332 331 327 328 331 338 344 339 339 339 340 343 343 344 346 348 348 348 351 351 350 349 344 345 352 355 358 361 360 357 358 361 363 360 359 359 356 356 358 357 358 358 359 358 355 355 355 355 354 351
317 317 316 315 314 314 313 313 315 316 315 313 311 316 322 319 318 318 318 322 324 322 322 322 322 322 323 322 323 322 324 328 326 329 332 328 329 332 336 334 330 333 336 340 346 344 341 342 342 342 343 346 348 348 350 348 349 349 348 344 341 344 349 346 353 367 366 358 359 365 366 362 360 359 357 356 355 356 356 356 359 359 357 355 354 354 354 351
317 316 316 315 315 315 314 314 316 316 316 316 314 318 322 319 319 319 319 324 326 325 325 323 323 325 327 325 323 324 328 328 327 329 332 329 331 336 338 338 338 339 340 341 345 345 344 345 345 345 345 347 348 347 350 349 347 348 348 342 341 343 345 349 356 367 367 359 360 363 362 360 360 362 362 356 352 355 355 355 359 359 357 356 353 351 353 351
317 316 316 315 316 316 314 314 316 316 316 317 318 321 322 320 319 318 320 327 325 325 325 322 323 326 326 324 323 326 328 328 328 329 331 331 333 339 340 341 345 347 345 343 344 346 346 344 343 345 346 346 348 349 349 348 344 343 345 345 345 343 348 363 364 361 360 356 358 355 349 352 360 365 363 359 355 355 356 357 359 359 356 355 354 352 351 351
317 316 316 315 317 315 315 319 317 315 317 319 320 322 321 321 320 317 324 330 324 323 326 324 325 326 325 325 324 326 328 329 330 330 332 333 334 340 343 343 346 349 348 345 344 346 346 344 344 345 347 346 348 347 345 347 341 338 344 348 349 345 351 366 361 351 352 351 355 354 347 348 357 364 365 360 357 356 356 358 359 358 355 353 353 352 352 351
317 317 316 316 317 315 317 322 317 316 323 322 321 322 321 321 319 316 325 332 327 323 324 322 323 324 325 324 324 328 328 329 331 332 333 334 334 338 344 347 345 342 344 342 342 344 344 344 345 346 348 347 346 344 346 347 341 339 348 351 351 350 355 361 355 354 358 353 353 358 354 352 354 360 366 360 358 359 357 358 358 356 353 352 351 351 352 351
318 317 316 317 317 315 316 318 315 319 324 322 321 322 321 320 319 321 327 328 326 322 321 322 321 322 320 321 326 329 327 328 331 333 333 333 337 339 344 349 346 343 343 342 342 345 342 341 345 349 345 342 343 344 345 344 342 345 353 354 353 352 356 358 357 364 364 350 349 357 353 352 354 358 362 360 357 360 361 360 359 354 351 352 351 350 350 351
318 317 317 317 316 316 316 314 315 319 321 322 322 322 322 319 320 328 330 324 322 322 321 322 319 318 319 321 326 326 323 324 327 332 333 333 337 339 343 346 343 343 340 342 345 345 340 338 339 341 338 339 342 341 340 342 343 344 349 355 354 355 358 360 363 365 358 347 348 353 350 348 353 357 360 358 355 357 363 364 358 352 350 351 351 350 350 350
319 318 318 317 316 317 315 314 317 319 321 322 322 321 321 321 327 331 327 322 321 321 319 320 318 319 321 323 324 323 322 321 326 334 336 337 337 335 339 340 340 343 341 341 342 340 339 337 338 338 336 339 340 337 337 338 342 344 352 356 350 357 364 368 371 360 348 349 349 348 350 346 346 354 358 355 352 353 360 363 359 353 351 350 351 350 348 349
319 318 318 317 316 316 317 320 320 320 323 321 322 322 321 329 338 331 322 321 323 321 319 320 318 317 320 324 324 323 322 320 326 338 339 339 339 337 337 335 339 343 342 339 338 338 337 334 338 340 340 340 335 335 338 337 347 355 361 355 344 351 356 356 362 352 345 350 347 346 351 345 342 352 357 355 350 348 353 357 359 355 352 350 349 349 348 348
319 319 319 318 317 317 319 323 322 321 322 320 323 328 329 331 331 326 326 324 320 320 320 322 320 316 318 322 323 322 322 320 327 340 343 341 342 342 338 339 343 340 338 341 337 336 338 337 338 337 340 341 331 335 337 336 352 359 357 352 343 345 347 346 350 349 349 349 344 348 350 344 346 353 357 358 350 346 346 349 354 353 350 349 348 348 347 347
320 320 320 319 319 320 320 321 321 320 321 321 326 335 339 334 325 327 333 327 319 319 320 321 320 317 318 320 321 320 321 321 326 337 341 340 342 342 339 340 342 338 338 341 333 330 334 336 338 333 335 338 332 335 331 330 348 353 348 345 341 345 344 344 350 345 340 341 342 351 350 344 345 345 351 360 351 347 344 344 351 350 347 347 347 347 346 348
320 321 320 320 321 321 321 321 319 319 320 322 328 335 336 332 329 332 337 332 326 322 320 318 317 318 318 320 321 320 320 318 323 335 340 340 341 341 340 338 336 336 337 334 330 331 330 330 336 334 331 334 333 335 333 338 349 350 350 341 336 346 340 334 344 340 332 337 341 345 348 346 340 336 348 356 348 347 343 343 350 348 346 346 346 347 347 348
321 322 322 322 322 322 323 320 319 319 320 328 340 343 333 328 331 334 335 335 331 325 322 319 317 317 316 318 320 319 320 318 324 340 343 341 341 341 342 338 336 337 336 332 332 332 325 326 338 336 329 331 333 335 337 340 339 336 341 334 329 342 341 329 337 344 339 340 343 344 348 354 346 339 350 351 347 349 343 343 347 345 346 346 345 347 346 347
322 323 324 324 324 325 323 320 320 319 324 338 345 339 334 330 330 333 335 332 328 326 323 317 316 316 314 316 320 318 319 316 325 341 342 339 341 341 341 340 337 335 334 336 335 330 323 327 336 334 330 331 331 335 336 333 334 331 329 330 331 339 348 335 331 342 340 333 341 343 340 346 344 338 348 352 349 349 344 343 345 344 345 345 345 346 345 346
322 324 326 325 325 324 320 320 320 319 329 345 338 330 338 337 329 336 339 330 325 326 322 316 316 316 312 313 317 318 319 317 320 334 337 334 339 339 338 338 336 334 334 335 336 333 326 325 332 332 331 332 330 331 333 331 334 333 326 333 337 334 345 342 331 340 340 334 343 343 334 338 337 332 346 358 354 349 346 345 344 345 346 344 345 345 345 347
320 324 327 326 325 321 319 320 320 323 333 342 339 335 339 336 329 334 335 327 324 324 321 318 317 318 314 313 316 319 319 316 318 326 326 327 337 340 337 336 333 335 334 331 334 336 327 323 333 336 330 331 331 326 327 331 332 333 334 339 335 328 334 335 331 337 336 333 342 343 336 336 335 338 347 357 357 353 348 347 344 346 346 345 345 344 345 348
321 327 328 326 323 320 320 319 321 331 330 326 335 338 331 331 333 333 329 325 324 321 320 322 319 319 318 315 317 320 318 316 318 320 316 321 333 336 335 336 332 333 334 332 335 336 330 324 329 336 329 326 334 328 322 328 331 331 335 337 337 340 340 333 332 334 334 336 340 339 335 336 343 353 351 351 359 356 350 349 347 346 347 346 344 345 346 348
323 333 330 323 321 319 320 320 326 336 326 318 331 334 325 326 328 328 327 325 325 323 322 326 322 321 321 320 320 320 319 318 319 318 315 320 330 330 331 334 331 331 331 331 333 332 329 326 324 335 332 323 328 330 326 331 330 327 328 327 332 340 338 333 334 333 335 342 341 337 335 341 355 362 352 352 357 353 351 351 348 347 347 346 346 345 346 348
324 335 329 321 320 320 320 325 329 331 327 325 330 329 326 327 328 329 330 326 327 327 323 323 325 326 325 324 323 322 321 320 318 317 316 318 323 325 325 329 331 331 330 331 332 329 328 327 323 325 324 321 326 332 332 336 337 334 329 327 335 341 336 333 334 336 337 338 341 338 332 340 358 358 354 357 354 351 353 351 348 350 347 347 348 347 347 349
330 334 326 321 321 319 322 332 333 328 329 332 329 325 327 330 330 332 331 328 330 329 325 322 323 327 328 326 326 325 323 320 317 317 317 316 321 322 322 328 330 330 333 332 330 332 335 331 321 320 323 324 327 327 326 328 333 333 329 333 346 347 339 329 327 336 338 332 337 339 330 342 364 357 353 357 354 350 352 351 350 350 348 348 348 347 348 350
335 332 324 320 320 321 328 339 338 332 332 331 327 327 327 328 329 331 331 331 332 330 328 326 325 326 327 327 328 328 324 319 317 319 320 319 320 322 322 327 329 330 332 330 329 336 339 329 320 324 333 334 333 331 328 325 325 324 326 336 344 342 342 336 333 342 342 334 337 335 329 346 368 361 353 355 355 350 349 351 351 349 349 349 347 349 351 349
330 329 328 324 318 321 331 336 332 332 334 329 328 329 327 327 329 328 330 332 332 332 329 327 326 325 325 326 328 331 326 320 319 325 326 324 324 326 325 323 327 329 328 330 332 330 331 330 324 323 326 329 334 335 328 325 326 325 326 332 340 348 349 344 343 344 337 335 339 334 331 349 367 363 358 355 356 353 348 349 350 349 349 350 348 351 351 350
328 329 332 328 320 322 331 331 327 331 333 331 332 333 329 329 328 326 329 331 330 329 326 326 326 324 326 330 331 332 331 326 326 331 332 329 330 334 331 326 324 323 329 341 337 327 332 336 328 323 322 321 324 324 321 322 323 323 327 329 336 348 345 338 338 333 329 334 337 333 337 352 364 359 351 354 356 354 351 349 349 350 349 350 351 350 351 352
330 330 334 335 328 324 329 328 325 328 332 333 335 334 329 329 328 326 328 330 329 326 325 327 329 330 332 335 336 335 335 334 332 334 335 333 334 334 333 334 328 323 340 355 341 334 341 336 329 329 327 325 332 336 334 331 322 317 322 326 333 344 345 342 338 332 336 339 335 343 348 343 351 356 350 355 358 352 353 353 350 352 351 352 354 352 352 352
328 329 331 334 332 331 331 328 326 329 331 331 333 333 329 329 329 329 328 328 328 329 328 329 331 334 334 334 336 335 336 338 334 332 333 333 334 334 332 334 333 337 355 354 335 337 337 325 326 332 328 327 337 343 336 330 322 318 320 321 330 343 345 341 336 337 345 335 329 356 364 335 339 358 353 353 358 352 354 355 353 355 354 353 354 352 353 353
326 326 326 325 330 334 331 326 328 331 331 331 335 334 331 329 329 329 330 329 327 327 331 331 330 332 332 332 336 334 337 341 336 334 336 332 332 336 333 333 333 341 351 339 331 340 332 320 325 329 326 328 330 330 329 327 323 325 325 322 326 338 342 338 339 346 349 332 327 352 366 343 342 357 351 350 354 348 348 353 354 353 352 353 355 354 355 354
329 329 326 323 328 332 329 326 328 332 333 336 339 336 330 330 330 327 327 329 329 325 327 330 329 329 329 333 340 337 334 335 331 334 337 331 332 335 334 337 334 334 338 331 330 336 327 324 332 325 319 324 325 327 328 325 326 330 332 333 330 332 336 334 339 349 349 340 338 348 358 354 348 346 343 345 346 347 354 361 360 356 354 357 357 356 356 354
328 329 327 329 333 332 332 331 330 335 337 336 337 334 328 330 330 327 326 327 328 327 326 327 328 329 328 332 337 335 331 329 329 334 335 330 334 336 334 338 335 331 336 334 334 334 321 324 339 330 315 317 324 329 325 325 335 336 336 344 339 334 334 330 337 346 343 343 348 344 344 351 350 348 346 346 349 352 357 362 364 363 361 359 358 357 355 354
320 320 321 329 335 334 334 333 331 337 339 335 335 333 330 331 328 326 329 328 324 325 327 327 326 328 331 333 334 332 328 327 328 331 331 327 331 334 334 336 334 331 337 337 335 338 326 324 335 329 314 312 320 326 324 327 337 337 335 340 340 336 333 331 339 347 341 341 347 339 336 345 352 351 346 345 352 356 356 357 364 368 366 360 358 357 354 353
318 320 319 324 331 332 334 333 332 336 336 331 330 329 329 330 327 326 332 334 327 324 326 326 326 328 332 334 332 329 326 326 326 326 327 325 326 329 329 331 332 330 335 338 336 339 337 328 327 324 315 313 320 328 329 327 327 331 336 338 338 341 340 338 346 351 347 345 343 337 338 346 348 347 345 345 351 357 362 362 361 367 369 361 355 354 353 352
Wind_Speed
13 13 13 13 14 13 13 13 13 14 14 14 14 14 14 14 14 14 14 14 14 14 14 14 13 13 13 14 14 14 15 14 12 7 8 12 13 12 15 23 29 28 27 27 27 22 16 12 12 12 9 3 1 2 2 0 1 0 1 1 2 2 3 4 5 4 3 2 1 3 3 2 1 1 2 2 3 4 5 3 1 3 3 2 13 23 26 27
13 14 14 14 14 14 14 13 13 14 14 15 14 14 14 14 14 14 14 14 14 14 14 14 13 14 13 14 13 13 15 15 12 11 16 12 11 16 21 26 30 31 31 30 29 24 16 12 13 12 6 2 2 2 2 0 1 1 1 1 2 4 4 4 4 4 3 3 2 3 3 3 3 2 3 1 4 5 5 3 1 4 5 5 15 23 24 26
13 14 14 14 14 14 14 14 14 15 15 15 15 14 14 14 15 14 15 14 14 14 13 14 14 14 14 14 13 13 13 11 7 8 11 11 17 22 25 30 31 32 33 33 33 27 16 15 17 12 5 3 2 2 3 1 2 2 1 2 5 5 5 4 5 5 5 3 1 1 2 3 3 3 3 1 5 7 6 6 5 5 8 9 13 18 20 23
14 14 14 14 14 14 14 14 15 15 15 15 15 14 14 15 15 15 15 14 14 14 13 13 13 14 14 13 11 11 9 5 3 3 2 12 23 26 29 32 32 32 32 30 29 20 13 16 16 10 5 3 2 3 3 3 2 2 3 5 5 3 3 6 6 6 5 3 2 2 1 3 2 4 3 3 5 6 7 8 9 10 12 13 13 14 17 19
15 15 15 14 14 14 14 15 15 16 16 16 15 14 14 15 15 15 14 14 14 13 13 13 14 14 13 12 9 8 5 2 2 2 2 14 26 29 31 32 33 33 29 26 21 14 12 15 13 8 5 3 3 3 4 5 3 2 6 7 7 3 4 7 4 4 3 3 3 2 2 3 1 4 4 5 5 3 5 9 9 11 14 15 15 13 15 17
16 15 15 16 15 15 15 16 17 17 16 16 15 14 14 15 15 15 14 14 13 13 13 13 14 13 12 10 6 4 1 1 3 2 3 17 28 29 31 33 34 31 27 25 19 13 11 12 10 6 4 2 4 5 3 5 5 2 5 6 8 6 6 7 2 3 4 4 4 3 3 2 2 1 4 7 5 2 4 5 7 8 13 17 16 14 15 16
16 15 16 16 16 17 17 17 18 17 17 16 15 15 15 15 16 15 14 13 13 13 13 13 14 12 10 8 2 2 1 5 5 2 5 19 28 28 32 34 33 30 26 24 17 11 10 12 10 5 4 3 4 6 3 5 6 4 5 5 7 7 8 8 4 3 4 5 5 3 2 3 4 1 2 5 3 4 3 2 5 6 11 16 16 15 15 16
17 16 17 17 17 18 18 19 18 17 18 17 17 17 15 15 16 14 14 13 13 13 12 13 12 8 9 6 1 3 1 5 5 4 8 21 28 29 34 33 31 29 27 24 18 12 11 11 10 5 4 5 3 5 3 4 5 6 7 7 5 5 8 8 6 4 5 5 3 3 2 3 4 2 2 4 4 6 4 5 6 7 9 12 15 16 15 15
17 18 18 18 19 20 20 19 18 18 18 18 18 18 16 15 15 14 13 13 12 12 12 12 9 5 7 4 1 2 3 7 10 6 14 27 30 33 36 32 31 29 24 23 19 14 10 10 10 7 4 5 3 3 4 3 4 7 9 7 5 7 8 6 5 4 4 3 3 3 4 3 3 1 1 3 5 8 8 7 8 9 10 11 12 15 15 15
18 19 19 20 22 22 21 20 19 18 18 18 18 19 17 15 14 14 12 12 11 11 11 10 6 4 5 4 2 1 5 11 11 5 22 31 34 36 34 33 34 29 22 20 18 16 12 10 10 6 1 2 3 2 4 4 3 5 7 6 7 10 8 5 4 2 3 4 5 4 4 1 4 4 1 1 6 9 10 10 11 11 12 12 11 12 13 14
20 21 21 22 24 23 22 21 20 19 18 18 18 19 17 14 14 13 12 11 10 9 9 7 3 2 3 2 4 3 7 10 3 13 28 34 36 37 34 35 36 28 22 17 18 21 14 9 7 3 1 1 3 2 4 4 3 3 4 6 8 7 6 4 3 2 3 3 4 5 3 1 4 4 2 3 7 9 12 13 13 11 11 12 11 11 11 11
21 22 22 23 24 23 22 21 20 19 19 19 19 18 16 14 13 11 10 8 7 7 6 5 1 1 2 2 4 6 8 8 7 21 32 34 34 36 34 36 37 32 27 17 17 22 14 8 5 4 3 0 2 2 3 4 3 3 2 6 9 5 5 3 1 1 3 2 2 5 1 3 3 2 3 6 7 8 11 14 14 12 10 11 11 10 9 10
21 22 23 24 24 23 22 21 20 20 19 19 18 17 14 13 11 9 8 5 5 5 3 2 1 1 1 1 4 5 4 6 12 25 31 28 26 28 27 31 33 29 24 13 11 17 14 7 3 4 4 3 3 3 3 2 1 4 1 2 6 6 4 2 1 2 3 1 1 3 1 3 2 1 4 6 8 8 10 12 13 12 10 9 9 8 8 11
22 22 23 25 25 23 22 21 21 20 19 18 16 15 13 11 8 6 4 2 1 1 1 1 3 2 1 4 4 2 1 5 14 24 26 21 18 18 18 22 23 20 14 7 3 7 12 10 5 5 4 4 5 4 5 3 1 4 2 0 2 3 4 4 1 3 3 1 2 3 0 2 3 1 3 5 8 9 10 12 12 11 10 9 8 8 7 10
22 23 25 26 25 23 22 21 21 20 18 18 17 14 10 7 5 3 1 2 2 4 3 3 4 3 2 6 5 3 4 8 11 22 24 19 16 13 13 17 18 16 11 8 4 2 7 10 5 4 5 5 4 5 6 4 2 2 2 3 2 1 4 6 1 5 3 1 3 3 1 2 3 1 2 4 8 9 9 12 12 11 11 10 8 7 6 8
23 24 26 26 25 23 22 22 21 20 20 18 14 8 4 3 1 2 4 4 4 5 5 3 3 3 1 4 1 3 4 7 8 18 22 20 16 11 11 14 13 13 8 7 7 7 5 5 4 4 5 5 4 3 4 4 4 2 0 4 3 2 4 5 1 3 4 2 2 1 1 2 1 1 3 4 9 9 9 11 12 12 11 11 9 8 6 6
24 25 26 26 26 23 22 21 20 21 20 14 8 3 1 2 4 6 6 6 6 7 6 3 1 1 1 3 1 1 4 6 6 14 23 22 15 10 12 9 6 9 5 3 5 7 4 2 2 3 3 4 3 1 3 4 4 3 1 2 3 2 3 4 3 0 4 3 1 0 1 2 3 2 4 4 8 9 9 11 12 11 10 10 10 9 6 5
26 26 26 27 26 24 21 20 19 20 16 8 4 2 5 7 8 8 8 8 7 6 3 1 1 1 3 4 1 0 1 3 5 11 20 22 15 9 10 7 6 9 5 0 3 3 1 1 1 2 3 3 3 4 2 5 2 0 1 2 5 4 4 4 4 2 3 4 1 1 0 2 4 3 3 5 7 8 9 10 10 10 11 9 9 9 6 5
26 26 27 27 26 23 20 19 19 17 9 6 10 14 14 12 9 7 8 7 4 3 1 2 2 1 2 4 2 4 7 3 4 8 15 19 14 9 8 7 8 9 6 2 3 4 3 1 1 2 4 7 6 6 8 9 3 2 3 5 6 7 7 6 3 4 5 4 2 2 1 1 4 5 2 6 8 7 8 10 9 8 10 9 9 9 7 7
28 28 28 28 26 23 19 18 17 12 5 10 14 15 11 7 5 2 1 2 4 4 2 3 5 2 3 2 3 8 8 1 3 7 16 19 15 11 6 5 6 4 5 4 3 4 4 2 4 7 10 10 6 6 8 9 7 7 7 7 8 8 9 6 2 3 4 4 2 0 1 2 3 5 2 6 8 7 8 9 8 8 9 10 10 9 8 8
29 30 29 28 25 21 18 17 14 9 4 9 8 6 2 2 2 1 2 4 8 8 4 4 6 6 7 5 5 7 4 1 1 6 17 19 16 12 3 3 5 4 5 5 3 3 4 4 10 13 13 8 3 4 6 6 7 7 5 6 8 7 8 5 2 3 2 4 2 1 3 4 2 2 3 5 9 8 8 9 8 9 10 9 9 9 8 6
30 30 29 27 24 21 17 13 10 7 3 6 4 1 1 2 3 1 0 2 7 9 9 6 4 8 10 10 10 3 1 1 2 5 14 15 11 7 4 4 5 4 5 5 4 3 3 7 15 15 7 4 4 5 6 7 7 6 5 4 7 6 4 4 2 2 2 2 2 1 3 3 3 2 3 3 6 5 5 6 6 7 9 9 9 9 8 7
31 30 29 26 23 20 15 10 7 6 3 2 3 2 1 1 1 2 1 1 5 3 5 5 5 6 7 8 8 6 3 3 3 5 13 13 6 4 5 5 5 5 5 5 5 5 4 8 13 9 4 4 7 6 6 6 5 5 5 4 7 7 2 3 1 2 2 2 3 2 2 2 2 1 2 4 3 2 3 2 2 3 5 8 9 9 9 10
31 30 28 24 22 18 12 8 6 4 4 2 4 1 4 4 4 2 1 1 3 3 2 6 6 5 6 5 7 10 3 4 4 5 13 13 5 4 5 4 5 5 5 8 8 6 7 6 3 2 5 7 7 6 5 5 4 5 7 7 9 11 6 4 2 2 3 2 3 3 3 3 2 2 2 3 2 1 1 1 2 3 2 5 8 10 11 11
31 30 27 23 20 15 9 6 3 3 5 3 3 5 8 6 3 5 3 1 2 4 2 4 2 5 6 3 8 8 3 3 4 6 12 12 7 5 3 3 4 4 6 7 6 5 10 7 1 2 2 5 5 6 5 5 4 5 7 11 13 14 7 4 4 3 4 3 1 3 2 4 3 2 3 4 3 2 1 1 3 4 3 4 6 9 11 11
32 30 26 22 20 13 6 2 1 3 5 2 2 9 10 5 3 9 3 4 2 3 0 1 1 5 6 5 6 4 3 2 4 11 16 13 10 5 3 2 1 3 6 4 2 3 7 3 1 3 4 4 5 6 5 6 3 5 5 8 12 12 5 7 7 3 1 2 3 1 2 3 4 3 3 4 5 5 4 3 4 4 5 4 4 6 8 10
33 30 25 22 18 11 2 1 1 2 1 1 4 10 9 0 7 7 2 5 2 1 1 1 1 5 6 5 6 5 3 3 2 9 14 14 10 3 3 3 1 3 4 3 1 3 3 0 2 5 5 5 5 5 5 7 4 5 4 2 6 7 5 8 7 3 2 2 2 1 3 1 3 3 3 5 6 6 6 6 6 5 6 7 5 5 7 8
34 30 25 21 16 8 3 3 2 3 2 2 6 10 6 5 8 3 3 3 1 0 2 2 0 4 3 3 6 3 2 3 4 4 10 16 11 2 3 5 3 4 3 5 4 4 2 2 4 6 4 3 4 6 6 7 4 5 3 2 0 3 5 7 6 3 1 1 3 3 2 1 3 2 2 4 4 5 8 9 8 7 8 8 7 6 6 7
34 29 24 20 14 7 4 5 5 4 2 4 8 10 2 8 5 3 3 3 1 1 1 1 1 2 1 3 3 2 2 1 2 2 5 11 9 1 2 6 5 4 4 5 6 6 2 3 4 4 3 4 6 7 6 7 6 4 4 7 6 6 5 5 4 3 2 2 3 5 4 1 3 2 3 3 3 8 9 10 10 8 8 10 8 6 6 6
34 29 23 17 11 5 4 7 7 4 3 6 9 7 4 6 3 4 2 1 0 1 1 1 0 1 3 4 1 2 1 2 1 3 4 3 5 1 1 2 4 3 2 3 6 6 4 4 3 3 4 5 6 6 4 7 7 3 5 6 6 5 4 4 2 2 3 2 5 5 7 3 2 3 5 5 7 12 12 8 8 9 9 11 9 7 7 6
33 28 20 13 8 3 2 2 3 2 3 6 8 3 3 2 3 5 2 1 1 1 1 1 1 1 5 5 2 1 1 1 3 4 3 2 4 2 2 1 2 1 2 4 5 5 5 5 3 4 5 5 5 4 3 2 3 4 4 3 4 3 3 3 3 3 2 3 5 3 6 4 1 4 7 11 9 11 14 12 12 12 11 11 10 9 8 7
32 25 16 9 6 7 6 3 2 1 3 6 6 3 3 2 3 3 1 2 1 1 2 2 1 2 4 3 1 1 2 1 1 4 5 4 4 5 3 3 3 1 2 4 4 4 5 6 5 4 4 5 4 4 5 3 3 4 3 4 3 3 3 3 3 2 2 4 3 4 5 2 4 6 8 14 12 10 14 15 14 14 14 13 12 11 9 7
30 20 9 4 5 7 7 5 3 3 4 4 3 3 4 4 3 1 1 2 0 2 2 2 2 4 5 4 1 1 2 2 2 2 3 4 4 5 5 5 4 3 2 3 2 3 4 5 4 2 3 3 6 3 3 1 0 2 4 3 2 2 2 2 3 2 2 4 2 3 3 1 4 5 6 12 15 14 14 14 14 15 16 15 13 11 9 8
26 14 6 2 3 4 6 6 5 5 4 3 3 3 4 4 1 2 1 2 3 1 0 1 3 4 5 3 3 3 2 2 3 3 2 3 3 4 4 4 4 3 1 1 1 2 2 4 3 3 2 1 5 6 5 4 3 4 4 4 3 4 2 3 3 1 3 3 2 1 1 2 3 3 4 8 11 13 13 13 14 15 15 12 10 10 9 8
20 9 6 3 1 1 6 7 4 2 2 3 4 3 3 1 2 1 1 3 2 2 3 1 4 5 2 1 3 2 3 3 2 4 3 4 4 5 4 5 6 4 3 2 2 2 2 5 6 4 2 2 3 4 4 5 1 3 3 4 1 4 4 1 2 4 2 1 2 2 2 4 3 3 4 4 4 11 13 13 14 13 12 8 7 9 9 8
15 6 6 5 4 2 5 9 6 1 1 4 5 3 1 1 2 2 1 2 2 2 3 3 4 4 1 1 3 2 1 1 1 2 2 2 3 5 5 4 6 7 6 4 2 2 1 5 6 4 3 4 6 5 5 4 2 1 2 3 5 4 6 2 1 0 3 1 3 1 2 5 3 2 5 6 4 10 12 13 14 14 13 11 9 9 9 9
14 5 5 7 6 3 4 8 7 1 2 5 4 1 2 3 3 4 2 2 3 1 3 2 1 3 2 2 2 3 1 1 1 2 1 2 2 4 5 3 4 10 10 6 3 2 2 5 6 2 5 7 4 4 4 3 4 4 2 5 3 1 3 3 0 3 4 0 4 2 3 5 3 1 3 7 7 8 11 12 12 11 12 12 11 10 11 11
12 3 4 9 8 2 5 7 5 1 3 5 1 1 1 2 3 4 2 2 2 0 3 2 2 2 4 3 3 3 3 3 3 3 2 3 3 4 7 4 4 10 11 8 3 3 2 3 7 3 5 7 3 2 3 6 0 3 4 3 3 1 1 1 1 0 1 1 4 4 3 3 1 3 2 4 5 8 10 12 11 11 12 13 12 12 12 10
8 2 3 9 7 4 7 4 1 3 5 4 1 1 1 3 5 5 4 2 1 1 2 3 2 2 3 5 3 3 4 4 4 4 3 3 3 4 6 5 4 8 10 10 6 3 3 1 6 4 4 4 5 2 2 4 3 2 1 1 2 2 3 1 1 2 1 0 2 3 4 3 4 5 3 4 7 9 11 12 13 14 15 14 12 12 12 11
3 3 2 8 4 6 4 1 3 4 4 1 1 2 1 3 5 7 5 3 2 1 2 3 2 2 3 4 3 3 4 4 5 3 3 4 4 4 5 6 4 3 6 9 7 2 2 2 4 5 4 3 3 1 4 3 1 1 1 2 0 1 2 1 1 1 2 2 2 1 3 4 5 4 4 6 8 10 12 12 13 13 14 13 11 12 12 11
3 3 2 6 3 5 2 4 3 3 1 0 1 2 3 2 4 7 5 3 3 3 2 3 3 3 3 3 2 3 3 3 4 3 2 4 4 3 4 6 5 4 5 5 5 3 3 3 2 4 5 3 6 6 6 6 5 4 4 4 3 2 3 2 2 2 1 3 3 2 1 6 5 3 4 4 7 10 11 11 10 11 13 12 11 12 12 11
2 3 3 3 3 1 6 3 1 1 1 1 2 3 4 3 4 6 5 1 2 3 1 1 2 2 3 2 2 3 3 2 4 3 2 3 4 4 5 4 6 7 6 3 3 3 3 3 1 5 5 6 11 9 5 7 5 5 3 3 3 4 5 4 3 4 0 1 1 2 1 5 5 2 3 3 7 10 11 10 9 10 13 13 12 12 12 11
2 1 4 1 4 2 6 3 3 4 0 3 4 4 4 3 3 4 4 4 2 1 2 2 1 1 1 2 1 2 2 2 3 3 3 3 4 7 7 5 7 7 6 3 2 3 3 2 1 4 5 6 10 8 1 3 3 3 2 2 3 3 3 5 4 3 2 2 2 2 2 5 4 3 1 2 4 7 9 10 10 8 9 12 13 13 12 12
1 2 3 1 3 3 5 3 2 4 3 5 4 3 3 2 2 4 4 4 4 2 2 2 1 1 1 1 2 2 1 2 2 1 1 1 3 5 5 6 6 7 5 4 4 4 3 2 2 1 4 6 7 6 5 3 1 1 3 1 3 3 5 4 2 3 1 3 4 4 2 6 5 4 2 3 4 5 8 9 9 8 7 9 11 11 12 12
1 2 2 2 1 2 2 3 0 2 4 5 4 5 5 2 2 4 4 4 3 2 1 2 2 1 2 1 3 3 4 4 2 1 2 1 3 4 2 4 6 7 5 3 6 7 4 3 4 3 2 1 1 1 2 3 2 1 2 2 1 5 6 4 3 3 1 3 4 4 4 6 6 5 4 2 3 5 7 7 7 7 7 8 9 9 10 10
2 1 2 4 3 3 1 1 2 1 2 3 3 4 6 4 4 5 3 2 3 4 2 2 3 3 3 5 4 5 6 4 2 2 3 3 3 3 5 4 3 6 7 7 9 6 3 2 5 7 6 6 6 6 4 1 1 3 4 4 2 4 5 4 4 3 4 3 1 5 5 4 7 5 5 4 2 4 5 6 6 6 6 7 8 8 9 9
2 1 1 2 2 3 2 2 4 2 1 1 1 3 5 5 5 5 4 2 3 5 2 3 5 4 3 4 4 4 5 4 4 3 3 3 3 4 6 4 1 3 5 11 10 5 4 1 4 7 7 7 7 6 3 1 1 4 3 5 3 1 4 5 4 5 5 4 4 7 5 2 7 6 5 6 4 4 5 7 8 7 7 6 6 7 8 8
1 1 1 1 1 0 1 3 3 3 4 2 1 2 5 6 6 4 4 4 5 5 3 4 7 6 4 3 3 3 5 4 5 5 4 3 4 6 7 3 3 7 4 7 6 4 5 2 4 6 7 8 6 5 4 1 2 2 2 4 3 2 4 4 4 5 6 5 5 5 5 6 9 6 7 8 6 5 5 6 6 5 6 6 6 7 8 8
1 1 1 1 1 2 2 3 3 3 4 3 2 4 5 6 7 4 3 4 6 6 4 3 5 7 6 4 3 3 4 3 3 4 3 3 4 4 6 5 3 6 7 3 1 1 4 2 3 4 4 5 5 5 4 2 1 3 4 3 2 3 5 3 2 3 4 5 6 2 4 8 9 7 7 5 3 3 2 3 4 5 7 7 8 9 10 9
1 1 2 2 2 1 2 2 2 1 2 4 2 3 4 5 6 6 4 2 4 6 5 4 5 7 6 5 5 3 1 1 1 4 2 3 4 2 2 2 3 5 7 2 2 3 1 2 1 3 1 3 4 4 2 3 4 4 5 6 6 3 1 2 1 1 1 6 7 3 2 8 8 4 5 2 3 5 3 3 4 5 7 8 9 9 10 11
1 1 0 2 2 2 1 2 2 3 2 3 2 2 4 3 4 5 5 2 2 3 4 5 7 5 4 6 6 2 3 3 5 8 6 3 3 3 2 3 3 4 6 1 2 3 1 0 1 4 2 3 2 4 3 1 5 7 7 8 8 7 4 3 2 2 0 4 6 5 3 6 6 4 3 2 4 5 4 5 4 5 6 8 10 11 11 12
4 1 1 3 1 2 2 2 2 3 1 1 2 2 3 3 5 5 3 3 1 3 3 5 5 2 2 6 6 5 6 7 9 10 8 6 6 6 5 6 5 2 2 1 1 1 3 2 1 3 3 4 4 2 2 3 6 5 4 2 3 4 4 3 3 3 1 2 2 4 5 6 6 6 4 4 4 5 5 5 3 4 6 8 9 11 11 12
Wind_Direction
344 344 343 342 342 341 340 340 340 337 334 332 333 332 332 330 326 327 327 328 329 328 331 330 331 331 330 334 333 329 328 326 320 292 247 242 224 193 177 176 165 160 162 155 153 155 155 162 160 159 161 153 141 126 117 82 124 180 124 187 254 221 222 199 193 195 191 256 196 202 211 158 249 169 131 117 86 111 118 93 56 53 19 86 130 137 140 142
344 345 345 344 343 342 339 340 338 334 332 333 333 330 329 326 324 326 325 326 327 327 330 330 332 332 330 332 331 330 331 322 315 279 249 239 203 181 175 176 167 163 164 158 161 165 163 169 162 159 158 152 161 125 131 179 151 196 186 206 243 216 224 210 200 196 197 237 164 177 215 189 223 159 146 158 136 149 129 112 150 94 91 113 129 137 143 146
344 345 345 344 342 341 339 338 335 332 332 332 329 328 326 323 324 324 324 324 325 327 328 329 331 331 330 329 331 329 328 326 307 270 251 213 181 174 174 177 171 168 170 165 168 170 167 164 159 158 164 174 152 136 161 188 184 193 192 237 248 227 247 249 218 219 221 235 153 173 216 204 222 138 147 180 153 177 175 167 172 148 145 147 140 142 149 148
344 343 342 341 339 338 337 335 332 330 329 328 327 326 322 322 324 322 322 322 322 326 326 329 330 329 329 327 331 327 324 337 272 237 197 183 175 170 175 178 173 172 173 168 167 167 153 147 155 162 174 195 163 150 181 194 171 165 190 225 243 203 253 256 218 229 228 210 184 147 193 245 219 148 172 170 161 199 201 188 178 164 162 156 152 151 153 148
343 342 340 339 337 335 334 331 328 327 326 325 324 321 319 320 321 320 320 320 320 324 328 330 329 327 329 329 331 327 331 55 251 247 150 177 174 169 175 178 174 173 169 164 161 155 142 146 160 172 182 202 180 179 200 195 166 189 222 235 250 210 254 268 227 222 201 151 174 157 220 246 140 152 187 190 183 225 220 198 183 165 162 159 157 156 154 150
342 341 339 336 334 333 330 327 324 324 323 321 320 318 317 317 318 319 317 318 319 323 329 328 330 328 332 339 331 334 39 208 284 297 164 173 173 168 172 175 172 168 163 160 157 153 151 156 170 181 192 209 197 208 199 177 170 230 245 243 252 234 242 268 246 190 153 143 191 191 216 163 117 191 190 202 190 348 295 195 168 166 163 158 156 155 157 156
339 339 336 334 333 330 327 326 324 323 322 319 318 315 313 314 315 316 314 317 320 324 329 326 329 330 339 351 333 29 79 264 281 258 169 171 172 166 167 171 165 163 160 159 160 161 161 166 182 184 189 213 208 219 208 162 184 229 263 262 259 240 235 253 258 222 166 179 202 160 154 158 193 219 148 210 166 91 353 74 131 158 158 158 158 159 161 159
339 337 335 334 332 329 326 324 323 322 320 317 317 315 310 311 311 312 313 315 319 323 325 324 329 336 349 359 336 1 288 263 294 256 191 169 167 161 162 164 162 163 162 166 169 166 165 172 187 176 191 226 202 205 185 150 194 219 246 261 268 248 245 259 263 239 190 191 185 133 203 212 192 154 135 212 165 135 125 99 133 149 156 167 164 160 161 160
339 337 335 335 332 330 328 325 322 319 317 314 314 313 308 308 308 308 310 312 318 320 320 323 328 347 355 351 0 342 272 299 321 265 183 167 163 160 163 163 164 166 166 175 174 166 173 178 190 184 193 218 189 199 178 164 218 214 231 257 273 272 273 278 269 232 184 176 153 169 241 233 169 185 222 206 165 147 136 137 157 155 162 176 168 162 163 162
339 338 337 335 332 333 331 327 323 318 315 312 310 308 306 305 305 305 306 311 316 316 319 322 327 356 344 337 108 190 299 323 323 201 169 165 161 161 166 167 167 168 170 179 182 182 186 184 189 192 216 217 193 203 177 185 236 208 227 256 256 270 283 273 268 261 127 145 159 183 256 225 171 205 246 180 156 142 135 150 167 164 165 174 172 165 164 165
339 338 337 334 333 334 331 326 322 319 316 314 309 304 302 302 302 303 306 311 314 314 317 317 329 16 332 355 131 204 319 331 286 165 164 163 162 166 171 172 171 170 171 180 195 197 196 190 182 189 276 251 224 225 198 217 284 252 260 284 266 273 288 251 252 291 112 124 157 168 254 249 180 205 187 156 154 142 140 153 172 173 167 172 171 164 164 164
338 337 335 332 333 334 329 324 322 319 314 310 306 302 299 298 299 300 306 313 314 311 314 317 320 77 353 7 197 228 334 358 169 163 163 165 168 174 176 177 177 175 175 181 202 203 200 198 187 220 248 315 275 275 240 231 273 277 292 301 292 319 312 255 211 266 117 102 159 149 274 289 206 199 152 154 154 145 145 154 172 179 171 172 167 163 164 161
336 335 333 333 335 334 327 324 321 316 311 305 302 301 296 295 298 300 308 312 305 302 308 330 139 94 27 276 240 231 345 40 156 163 161 166 171 175 179 180 181 181 179 179 203 207 209 215 223 259 292 338 285 284 287 235 230 282 262 259 302 341 324 273 95 86 99 75 135 117 7 306 282 206 143 157 155 145 148 158 174 177 168 170 165 159 161 163
335 333 333 335 335 331 326 323 318 314 313 309 303 299 294 293 297 298 308 299 303 17 10 82 141 107 82 244 291 323 212 123 152 163 161 168 170 171 184 186 184 186 185 178 189 210 216 233 287 300 293 287 264 291 312 316 329 291 295 203 319 340 296 290 120 123 101 16 37 71 45 278 289 273 166 170 157 149 155 163 174 177 166 166 163 156 162 168
334 333 335 335 334 331 326 320 317 317 316 310 302 297 291 287 293 290 240 178 127 101 108 121 155 125 31 272 300 13 180 158 169 175 168 171 168 165 186 189 188 189 194 203 212 285 227 223 253 284 274 271 277 303 311 319 330 303 296 304 326 228 274 305 242 153 130 16 36 65 139 258 256 238 240 186 159 159 164 164 173 177 167 161 156 159 170 172
333 335 336 335 334 330 325 323 322 319 314 309 307 301 286 273 247 164 160 153 134 127 127 126 167 148 49 280 279 66 175 174 193 190 182 183 175 164 168 169 179 187 196 215 239 299 286 212 213 231 257 275 277 300 321 320 321 343 254 274 296 277 297 327 313 160 130 108 30 45 191 282 270 223 266 193 164 169 167 162 173 176 167 158 154 166 175 164
336 336 335 335 336 331 327 327 322 316 315 317 319 300 212 174 147 145 150 140 128 126 120 113 143 166 257 282 299 342 214 194 203 193 193 197 188 162 147 136 146 168 177 227 262 301 303 205 214 220 250 267 221 120 346 306 291 319 354 268 271 271 289 316 317 191 100 85 334 270 198 296 319 263 248 190 165 174 163 156 170 174 168 161 158 169 172 161
337 335 335 337 337 333 329 326 320 319 325 341 3 110 124 124 133 135 135 126 111 106 95 45 55 119 250 267 232 230 270 220 204 188 190 195 193 170 148 129 120 131 122 297 266 276 251 249 281 278 285 258 189 128 200 245 234 223 19 326 300 292 267 276 291 208 104 63 30 29 330 310 335 311 239 179 161 169 161 154 167 172 169 168 167 173 173 172
337 335 337 339 338 334 329 326 323 327 348 64 92 105 108 103 106 115 123 119 111 123 204 222 174 127 241 242 231 320 319 284 186 171 174 180 181 169 144 125 126 126 121 154 201 182 179 246 286 282 257 236 215 179 209 234 257 299 302 313 302 300 287 272 259 202 133 82 34 21 342 324 355 340 246 169 157 156 154 154 163 168 170 175 179 180 178 186
338 337 338 338 337 335 330 327 327 336 36 109 113 109 108 97 84 83 133 193 222 194 121 177 195 272 302 265 355 348 329 244 155 157 168 171 160 147 137 118 123 127 139 156 176 169 157 201 239 236 231 233 222 201 227 253 280 295 299 300 288 286 289 285 230 196 130 92 322 292 48 6 19 350 340 159 156 147 146 152 160 166 175 184 185 185 186 191
340 339 339 338 336 335 332 329 330 345 71 135 137 119 137 153 109 264 234 245 246 230 235 218 207 256 279 280 322 359 5 290 19 135 163 165 146 138 161 151 141 160 172 154 130 147 152 198 233 233 232 243 232 200 230 256 269 276 277 291 292 276 274 286 160 176 101 83 282 195 63 5 9 354 357 140 150 147 149 156 163 168 179 189 186 188 193 190
340 339 338 338 336 335 334 331 333 351 56 147 162 172 252 180 131 82 149 279 272 233 226 232 235 266 272 276 275 283 38 286 29 123 158 157 144 150 173 160 157 164 167 148 111 132 180 234 242 239 235 254 248 222 223 238 249 257 264 281 286 276 281 316 83 101 36 83 235 206 83 344 309 0 16 102 139 141 135 148 166 172 177 187 187 186 194 190
340 339 339 339 336 336 336 334 334 349 19 159 189 202 313 299 270 330 28 305 291 242 201 207 219 252 267 274 246 177 141 201 159 162 167 154 150 171 158 162 167 141 144 169 157 153 187 241 249 238 198 221 246 243 230 249 258 243 252 262 270 275 275 295 313 79 35 101 173 154 101 309 294 29 51 75 105 106 73 105 190 197 173 180 185 186 193 194
342 341 341 338 337 338 336 333 325 333 339 270 224 268 349 324 288 273 169 187 292 290 196 183 186 212 243 257 183 154 148 201 168 178 173 158 145 155 161 164 151 139 162 191 186 190 222 240 264 198 179 203 241 258 235 251 273 246 235 230 253 265 243 227 223 112 41 36 138 115 43 319 258 206 158 100 84 11 53 94 237 248 190 163 172 183 196 200
343 342 342 339 339 339 335 331 311 326 330 268 242 336 350 333 266 179 163 38 312 292 218 171 201 217 210 159 163 166 145 201 199 175 171 166 151 140 178 171 140 159 183 196 197 229 254 255 331 321 225 190 224 257 230 209 263 283 243 221 234 254 246 156 136 108 32 341 228 113 40 301 279 233 194 130 134 210 189 187 229 230 211 169 163 176 193 203
344 342 343 340 338 341 341 324 273 321 325 265 301 341 343 337 172 167 152 36 3 299 28 147 293 197 178 143 176 168 103 246 222 159 163 173 171 154 167 177 133 181 179 184 195 236 261 261 157 251 264 226 233 260 223 180 218 296 256 211 223 240 221 146 146 132 59 271 267 116 135 266 295 266 204 143 157 203 209 213 221 220 212 196 177 169 182 197
344 343 343 338 336 338 322 206 248 285 303 313 333 337 336 339 156 161 100 38 8 306 129 241 334 170 182 177 173 140 129 241 125 147 168 177 184 158 148 186 157 183 167 133 209 238 227 141 176 213 241 246 247 264 223 164 167 262 276 223 220 219 179 151 144 129 188 228 316 322 130 142 291 273 202 148 157 202 226 232 225 215 213 208 197 180 176 187
344 344 341 335 333 327 261 218 227 212 200 327 331 337 339 156 151 126 70 72 11 334 158 246 203 167 183 158 162 156 205 184 126 182 185 175 185 121 144 208 177 185 191 150 210 260 165 157 209 200 225 244 231 244 212 156 180 259 322 32 164 152 137 136 125 118 172 27 318 265 144 116 272 275 149 147 168 210 225 229 225 213 209 211 208 193 181 183
344 344 338 331 329 314 250 228 222 218 252 321 340 343 10 150 133 50 78 91 29 313 185 70 114 191 110 116 185 281 347 70 139 194 150 167 196 127 166 211 164 181 228 181 218 266 240 215 222 210 242 229 232 245 200 164 213 258 58 71 67 78 99 102 113 122 74 20 282 234 172 146 278 232 157 148 202 217 219 223 222 216 207 208 211 203 191 187
343 342 334 324 317 300 245 236 233 245 294 330 345 350 122 130 75 56 70 68 116 273 280 98 230 225 106 123 227 316 19 357 22 115 89 144 202 260 270 194 122 144 261 249 246 264 268 273 270 249 234 216 238 254 204 188 202 175 77 75 65 58 64 56 71 92 63 307 275 225 179 154 304 242 185 190 207 201 202 213 217 218 213 206 208 205 198 192
342 339 326 312 295 242 200 228 227 252 307 329 338 355 119 69 48 89 82 270 194 305 318 175 257 65 105 139 196 328 120 347 30 113 120 123 168 229 315 29 86 90 331 294 275 290 297 284 266 243 217 210 250 283 292 234 165 113 77 86 73 17 13 26 357 30 77 262 280 222 168 139 283 254 208 217 223 190 188 201 205 211 213 206 206 206 201 194
342 337 322 299 253 212 193 154 118 14 314 318 338 40 91 22 38 87 306 306 0 254 215 183 186 126 108 114 155 200 146 169 32 135 150 141 157 196 213 199 182 138 301 268 274 317 298 256 242 260 239 200 209 281 319 1 51 77 88 83 64 357 1 13 322 348 197 253 273 161 148 136 239 246 219 218 223 196 186 193 194 202 209 205 205 206 200 192
343 339 332 297 232 211 199 190 221 293 309 316 1 57 78 71 54 351 304 337 321 221 206 141 120 122 124 121 231 227 144 207 231 152 151 145 154 204 225 215 175 147 228 233 266 310 296 278 257 258 271 200 167 203 285 308 106 135 146 127 107 99 36 328 284 309 275 282 306 155 171 287 276 264 220 211 216 201 183 180 185 199 207 203 200 199 196 190
347 347 355 327 237 213 197 199 229 265 303 348 63 71 64 73 40 327 347 283 258 245 304 133 111 90 114 158 226 187 145 239 200 135 140 140 150 214 239 227 188 150 172 202 245 200 232 291 254 195 255 217 174 197 201 174 175 189 169 141 144 152 157 258 241 242 274 287 342 27 203 233 269 270 229 222 217 194 177 173 179 201 211 201 193 192 192 191
351 358 16 33 66 217 197 190 199 246 321 40 71 71 72 80 272 297 284 263 275 349 336 29 98 88 96 238 278 199 170 236 171 122 155 165 171 201 207 214 202 161 138 183 238 185 193 265 255 249 242 162 213 224 159 119 164 241 144 111 217 194 161 225 206 180 189 251 283 293 238 226 234 279 311 307 201 172 172 170 172 194 207 194 192 195 191 193
358 29 36 44 47 25 195 185 175 195 28 73 62 44 90 229 238 188 223 276 315 327 340 16 79 94 120 253 300 287 185 216 141 116 189 199 198 203 199 213 199 176 167 176 218 198 194 268 273 313 313 216 218 218 168 151 186 251 123 179 242 191 126 111 247 179 73 70 269 270 277 289 319 342 343 12 95 149 161 166 169 185 192 187 196 199 192 196
2 51 45 27 23 25 175 169 156 142 51 85 78 353 225 240 207 185 235 320 304 303 90 94 147 138 155 186 261 259 180 191 200 150 206 230 237 209 205 231 190 183 190 185 213 216 174 275 275 274 282 269 228 189 217 214 153 130 186 216 220 132 91 103 170 355 40 223 283 320 274 295 350 338 343 42 84 139 159 166 169 174 182 190 199 199 196 195
352 42 45 17 11 42 145 145 138 93 65 77 61 262 232 256 227 210 256 320 308 16 104 151 204 158 162 181 242 227 165 187 204 170 172 208 248 208 184 211 203 193 195 179 206 247 157 274 286 236 240 285 348 111 271 299 310 153 191 184 132 152 254 55 127 243 28 300 298 316 297 278 211 242 304 81 125 157 162 166 167 172 184 194 199 197 197 191
347 48 31 3 10 100 127 128 51 39 64 59 331 270 255 270 264 253 264 298 323 108 142 207 187 120 158 176 196 190 176 192 187 176 169 172 241 228 178 191 218 204 191 168 177 235 141 200 290 277 236 298 349 52 228 299 337 64 126 116 74 141 174 183 152 172 163 196 270 313 332 293 229 226 203 174 174 167 166 170 176 182 188 193 195 192 191 188
3 79 16 352 42 127 123 40 19 49 66 50 227 230 288 278 279 278 261 227 198 177 199 210 170 132 182 190 186 180 187 190 173 184 203 177 213 249 200 191 203 189 174 170 178 191 114 168 266 288 303 328 325 234 183 203 163 97 208 219 322 58 151 180 0 90 127 146 184 300 320 277 250 212 188 190 179 173 178 180 183 186 187 191 192 188 187 187
13 71 348 345 98 136 21 14 37 57 75 330 231 252 287 280 286 295 284 200 194 233 225 195 183 168 178 193 204 188 173 179 184 189 215 199 204 249 229 199 179 128 125 163 196 191 174 179 217 291 320 304 262 238 184 180 172 162 193 203 183 144 123 124 303 311 87 130 168 165 242 272 262 191 181 184 173 180 186 185 187 185 183 187 190 187 186 186
53 69 322 325 151 100 17 40 0 32 124 306 306 275 288 294 286 294 307 320 198 248 303 225 206 162 166 203 206 169 145 169 198 184 201 221 202 227 249 208 164 150 132 145 207 181 150 133 185 270 272 252 266 268 203 190 183 157 185 201 161 139 129 148 235 264 90 101 157 134 202 270 265 209 186 173 172 183 185 186 190 187 183 184 185 185 185 187
90 17 323 323 197 327 34 71 330 359 243 272 285 261 260 270 286 294 316 347 337 299 355 330 294 72 215 242 159 117 133 163 188 189 211 228 216 228 228 184 151 150 142 151 178 153 140 131 180 277 295 292 289 297 257 173 147 142 220 191 145 155 150 162 186 182 155 180 166 116 281 271 281 306 260 153 153 177 185 188 191 191 189 184 182 183 184 186
102 260 327 11 229 309 46 99 331 340 302 302 309 295 273 231 287 322 314 324 330 339 358 324 330 41 275 243 95 86 100 115 142 233 243 201 254 259 227 198 184 171 175 193 176 169 187 171 136 320 328 332 331 345 359 356 43 171 242 225 159 137 107 120 132 88 98 217 156 127 246 257 273 318 351 74 113 174 196 195 191 190 189 187 185 185 185 185
350 220 299 329 283 2 82 150 146 312 307 329 333 333 339 302 297 330 303 290 312 353 356 299 299 300 302 33 75 41 34 72 97 5 22 347 279 297 293 238 210 195 207 183 149 161 175 162 144 144 182 238 324 327 296 291 302 292 296 309 192 145 131 142 131 99 225 228 143 150 225 263 296 327 346 31 113 180 207 199 197 197 187 187 187 185 186 184
34 109 319 331 4 35 81 197 59 58 312 357 351 333 350 340 310 320 329 324 339 0 26 318 332 359 8 30 54 33 18 32 67 56 17 341 292 285 299 288 226 210 208 158 139 139 118 177 187 167 174 189 193 216 230 202 322 302 306 314 279 158 134 109 104 142 196 176 180 216 209 287 307 305 302 295 166 184 208 190 194 205 193 190 189 185 185 182
60 101 7 343 341 15 20 356 26 34 301 357 11 325 347 349 327 329 357 9 333 346 15 9 15 37 17 11 53 42 2 2 26 28 358 323 282 280 292 287 349 315 199 162 152 126 98 218 215 179 201 218 206 226 268 47 219 251 290 327 326 159 130 123 153 194 164 132 272 252 186 230 276 260 256 261 224 201 209 192 194 200 192 190 182 179 183 180
57 97 164 132 251 259 27 340 345 344 320 288 202 342 353 1 359 350 339 331 337 0 33 18 17 31 9 350 91 52 359 5 13 353 337 332 321 330 334 330 18 16 54 149 165 131 124 219 217 182 225 249 239 258 298 318 243 263 343 356 341 250 184 166 207 210 158 157 262 251 173 215 255 245 229 231 215 205 203 190 190 182 173 176 167 171 184 184
43 45 307 25 94 201 230 312 325 335 338 337 11 12 1 359 2 347 307 325 343 359 43 42 353 3 10 20 90 67 11 28 11 326 322 350 339 345 352 334 336 23 46 85 277 79 125 220 219 175 228 265 267 276 267 204 85 19 352 346 5 211 200 182 214 210 190 233 270 245 194 241 256 246 237 232 184 162 146 133 152 162 169 176 175 180 188 189
40 45 316 10 35 283 263 329 0 56 14 4 15 0 348 356 0 339 312 348 354 346 15 23 325 327 353 20 65 97 189 177 215 259 270 352 337 319 351 297 277 358 27 59 310 341 103 211 208 115 122 296 316 337 308 180 112 56 353 348 15 33 68 63 41 86 254 277 292 327 268 267 272 259 256 268 108 120 133 144 162 177 178 176 182 191 190 189
328 236 57 76 28 334 319 337 25 90 49 7 26 340 333 344 347 329 301 288 66 22 0 345 326 315 332 11 35 51 275 261 238 244 244 250 258 250 264 228 216 340 352 349 309 346 54 179 23 80 90 266 299 20 344 310 69 45 6 358 10 25 47 51 37 57 230 271 302 329 283 260 286 315 297 268 126 138 189 205 187 187 183 177 188 199 196 192
0 336 45 91 70 340 13 350 11 86 130 320 354 331 309 300 318 331 315 294 3 60 18 353 353 342 340 1 1 329 308 291 264 260 258 246 247 249 254 252 239 252 281 284 331 20 103 117 185 108 119 253 275 40 52 44 42 10 316 328 32 52 88 89 41 10 306 222 260 277 246 250 297 323 299 246 187 177 207 214 200 199 198 194 196 200 202 200